Location: Bothwell
(42.3833°S, 147.0000°E)
Time: 20:32:47
(UTC+11:00)

AO-85 - Pass Details

Date: 04 October 2022
Orbit: 513 x 757 km, 64.8° (Epoch: 24 November)

Event Time Altitude Azimuth Distance (km) Brightness Sun altitude
Rises 06:10:48 0° 222° (SW) 3,134 ? -6.4°
Reaches altitude 10° 06:13:17 10° 230° (SW) 2,239 ? -5.9°
Maximum altitude 06:17:58 36° 295° (WNW) 1,179 ? -5.1°
Drops below altitude 10° 06:22:46 10° 360° (N) 2,285 ? -4.2°
Sets 06:25:19 0° 8° (N) 3,206 ? -3.7°
